CW3953 Weather Reports


time (UTC)temp
C
wind
direction
speed
KPH
gust
KPH
rain 1hr
cm
rain 24hr
cm
rain mn
cm
humidity
%
barometer
mb
20260906124503 18 0 0.0 0.0 0.00 0.00 0.00 97 1019.1
20260906123005 18 0 0.0 0.0 0.00 0.00 0.00 97 1018.8
20260906121503 18 0 0.0 0.0 0.00 0.00 0.00 96 1018.7
20260906120005 18 0 0.0 0.0 0.00 0.00 0.00 96 1018.5
20260906114503 18 0 0.0 0.0 0.00 0.00 0.00 96 1018.1
20260906110005 18 0 0.0 0.0 0.00 0.00 0.00 96 1017.8
20260906104503 18 0 0.0 0.0 0.00 0.00 0.00 96 1017.7
20260906103004 18 0 0.0 0.0 0.00 0.00 0.00 96 1017.7
20260906101504 18 0 0.0 0.0 0.00 0.00 0.00 96 1017.4
20260906094503 18 0 0.0 0.0 0.00 0.00 0.00 96 1017.3
20260906093005 18 0 0.0 0.0 0.00 0.00 0.00 96 1017.2
20260906090005 18 0 0.0 0.0 0.00 0.00 0.00 95 1017.2
20260906084503 18 0 0.0 0.0 0.00 0.00 0.00 95 1017.2
20260906083005 18 0 0.0 0.0 0.00 0.00 0.00 95 1017.2
20260906081504 18 0 0.0 0.0 0.00 0.00 0.00 95 1017.2
20260906080005 19 0 0.0 0.0 0.00 0.00 0.00 94 1017.2
20260906074503 19 0 0.0 0.0 0.00 0.00 0.00 94 1017.2
20260906073005 19 0 0.0 0.0 0.00 0.00 0.00 94 1017.2
20260906071504 20 0 0.0 0.0 0.00 0.00 0.00 94 1017.2
20260906070005 20 0 0.0 0.0 0.00 0.00 0.00 94 1017.2
20260906064504 20 0 0.0 0.0 0.00 0.00 0.00 93 1017.3
20260906063005 20 0 0.0 0.0 0.00 0.00 0.00 94 1017.3
20260906060004 20 0 0.0 0.0 0.00 0.00 0.00 93 1017.3
20260906054502 20 0 0.0 0.0 0.00 0.00 0.00 93 1017.4
20260906053003 21 0 0.0 0.0 0.00 0.00 0.00 93 1017.3
20260906051502 21 0 0.0 0.0 0.00 0.00 0.00 93 1017.1
20260906050008 21 0 0.0 0.0 0.00 0.00 0.00 93 1017.1
20260906044502 21 0 0.0 0.0 0.00 0.00 0.00 93 1016.8
20260906043004 21 0 0.0 0.0 0.00 0.00 0.00 93 1016.7
20260906041502 21 0 0.0 0.0 0.00 0.00 0.00 93 1016.5
20260906040004 21 0 0.0 0.0 0.00 0.00 0.00 93 1016.3
20260906033004 21 0 0.0 0.0 0.00 0.00 0.00 92 1016.2
20260906031502 21 0 0.0 0.0 0.00 0.03 0.00 91 1016.2
20260906030004 21 0 0.0 0.0 0.00 0.03 0.00 91 1016.3
20260906024503 21 0 0.0 0.0 0.00 0.20 0.00 91 1016.2
20260906023004 21 0 0.0 0.0 0.00 0.20 0.00 90 1016.1
20260906021503 21 0 0.0 0.0 0.00 0.20 0.00 90 1016.2
20260906014502 21 0 0.0 0.0 0.00 0.20 0.00 90 1016.3
20260906013004 21 0 0.0 0.0 0.00 0.20 0.00 90 1016.2
20260906011503 21 0 0.0 0.0 0.00 0.20 0.00 90 1016.5
20260906004502 21 0 0.0 0.0 0.00 0.20 0.00 89 1016.0
20260906003004 22 0 0.0 0.0 0.00 0.20 0.00 89 1016.0
20260906001502 22 0 0.0 0.0 0.00 0.20 0.00 89 1015.9
20260906000004 22 0 0.0 0.0 0.00 0.20 0.00 89 1015.8
20260905234502 22 0 0.0 0.0 0.00 0.20 0.00 89 1015.8
20260905230004 23 0 0.0 0.0 0.00 0.20 0.00 84 1015.6
20260905224503 24 0 0.0 0.0 0.00 0.20 0.00 83 1015.3
20260905223005 25 0 0.0 0.0 0.00 0.20 0.00 83 1015.2
20260905221503 25 0 0.0 0.0 0.00 0.20 0.00 80 1015.2
20260905220004 26 0 0.0 0.0 0.00 0.20 0.00 80 1015.1
20260905214502 26 0 0.0 0.0 0.00 0.20 0.00 79 1015.0
20260905213004 26 0 0.0 0.0 0.00 0.20 0.00 82 1014.9
20260905211503 27 0 0.0 0.0 0.00 0.20 0.00 80 1014.6
20260905210004 27 0 0.0 0.0 0.00 0.20 0.00 78 1014.6
20260905201502 26 0 0.0 0.0 0.00 0.20 0.00 83 1014.7
20260905200004 26 0 0.0 0.0 0.00 0.20 0.00 83 1014.8
20260905194502 26 0 0.0 0.0 0.00 0.20 0.00 83 1015.1
20260905193005 25 0 0.0 0.0 0.00 0.20 0.00 87 1015.2
20260905191503 25 0 0.0 0.0 0.00 0.20 0.00 86 1015.3
20260905190004 24 0 0.0 0.0 0.00 0.20 0.00 87 1015.5
20260905184502 24 0 0.0 0.0 0.00 0.20 0.00 87 1015.5
20260905183005 24 0 0.0 0.0 0.00 0.20 0.00 88 1015.5
20260905181502 24 0 0.0 0.0 0.00 0.20 0.00 88 1015.6
20260905180005 23 0 0.0 0.0 0.00 0.20 0.00 88 1015.5
20260905174502 23 0 0.0 0.0 0.00 0.20 0.00 89 1015.2
20260905170004 23 0 0.0 0.0 0.00 0.20 0.00 89 1015.6
20260905164503 23 0 0.0 0.0 0.00 0.20 0.00 89 1015.6
20260905163003 23 0 0.0 0.0 0.00 0.20 0.00 90 1015.6
20260905161503 23 0 0.0 0.0 0.00 0.20 0.00 90 1015.6
20260905160004 23 0 0.0 0.0 0.00 0.20 0.00 90 1015.5
20260905154502 23 0 0.0 0.0 0.00 0.20 0.00 91 1015.2
20260905153005 23 0 0.0 0.0 0.00 0.20 0.00 91 1015.1
20260905143003 23 0 0.0 0.0 0.00 0.20 0.00 96 1014.6
20260905141503 22 0 0.0 0.0 0.00 0.20 0.00 96 1014.6
20260905140005 22 0 0.0 0.0 0.00 0.20 0.00 96 1014.5
20260905131502 22 0 0.0 0.0 0.00 0.20 0.00 97 1014.9